FW1140 Weather Reports


time (UTC)temp
F
wind
direction
speed
knots
gust
knots
rain 1hr
in
rain 24hr
in
rain mn
in
humidity
%
barometer
mb
20260506003039 44 325 7.8 11.3 0.00 0.00 0.00 49 1012.0
20260506001537 44 345 6.1 12.2 0.00 0.00 0.00 48 1011.8
20260506000035 45 324 7.8 15.6 0.00 0.00 0.00 47 1011.8
20260505234535 45 321 9.6 14.8 0.00 0.00 0.00 46 1011.7
20260505233035 45 339 9.6 16.5 0.00 0.00 0.00 46 1011.5
20260505231547 45 292 11.3 18.2 0.00 0.00 0.00 44 1011.4
20260505230034 45 301 8.7 14.8 0.00 0.00 0.00 45 1011.4
20260505224532 45 295 12.2 18.2 0.00 0.00 0.00 44 1011.3
20260505223031 46 301 12.2 16.5 0.00 0.00 0.00 45 1011.5
20260505221530 46 309 13.0 16.5 0.00 0.00 0.00 44 1011.4
20260505220032 46 328 13.0 19.1 0.00 0.00 0.00 43 1011.3
20260505214540 46 309 9.6 15.6 0.00 0.00 0.00 43 1011.3
20260505213036 46 319 13.9 18.2 0.00 0.00 0.00 41 1011.3
20260505211528 46 301 10.4 19.1 0.00 0.00 0.00 42 1011.3
20260505210028 47 321 12.2 16.5 0.00 0.00 0.00 40 1011.2
20260505204527 47 305 10.4 17.4 0.00 0.00 0.00 42 1011.2
20260505203040 46 302 11.3 19.1 0.00 0.00 0.00 42 1011.2
20260505201532 47 321 11.3 17.4 0.00 0.00 0.00 42 1011.3
20260505200026 47 334 9.6 16.5 0.00 0.00 0.00 42 1011.4
20260505194526 47 298 9.6 18.2 0.00 0.00 0.00 42 1011.3
20260505193031 47 300 13.0 16.5 0.00 0.00 0.00 40 1011.3
20260505191524 46 321 15.6 20.9 0.00 0.00 0.00 40 1011.1
20260505190030 47 335 10.4 19.1 0.00 0.00 0.00 39 1011.0
20260505184526 47 283 7.8 15.6 0.00 0.00 0.00 39 1010.9
20260505183025 47 304 11.3 20.0 0.00 0.00 0.00 39 1011.0
20260505181522 46 322 10.4 14.8 0.00 0.00 0.00 40 1011.1
20260505180022 47 359 9.6 19.1 0.00 0.00 0.00 42 1010.9
20260505174528 46 323 10.4 17.4 0.00 0.00 0.00 43 1010.8
20260505173020 46 311 12.2 22.6 0.00 0.00 0.00 42 1011.0
20260505171520 46 297 14.8 20.0 0.00 0.00 0.00 41 1011.0
20260505170020 46 330 11.3 17.4 0.00 0.00 0.00 41 1010.7
20260505164517 46 330 10.4 20.0 0.00 0.00 0.00 42 1010.6
20260505163016 46 309 10.4 19.1 0.00 0.00 0.00 39 1010.5
20260505161514 46 333 13.9 20.9 0.00 0.00 0.00 40 1010.3
20260505153009 47 307 14.8 20.0 0.00 0.00 0.00 39 1010.0
20260505151506 47 316 13.0 21.7 0.00 0.00 0.00 40 1010.0
20260505124525 39 275 6.1 11.3 0.00 0.00 0.00 64 1009.0
20260505123021 38 308 6.1 10.4 0.00 0.00 0.00 65 1008.7
20260505121516 37 285 5.2 9.6 0.00 0.00 0.00 66 1008.6
20260505120012 36 265 5.2 7.8 0.00 0.00 0.00 69 1008.3
20260505114507 35 293 6.1 12.2 0.00 0.00 0.00 69 1008.2
20260505113010 34 295 6.1 12.2 0.00 0.00 0.00 73 1008.2
20260505111501 32 261 3.5 7.0 0.00 0.00 0.00 77 1008.1
20260505101556 33 262 6.1 7.8 0.00 0.00 0.00 73 1007.6
20260505100055 34 269 5.2 7.8 0.00 0.00 0.00 73 1007.7
20260505094548 34 266 6.1 7.8 0.00 0.00 0.00 73 1007.7
20260505093045 34 262 4.3 7.0 0.00 0.00 0.00 73 1007.8
20260505091543 34 266 4.3 7.0 0.00 0.00 0.00 73 1007.7
20260505090054 35 260 4.3 6.1 0.00 0.00 0.00 71 1007.5
20260505084540 36 310 6.1 10.4 0.00 0.00 0.00 68 1007.5
20260505083036 37 301 6.1 11.3 0.00 0.00 0.00 67 1007.3
20260505081535 37 276 5.2 8.7 0.00 0.00 0.00 69 1007.1
20260505080030 38 240 6.1 9.6 0.00 0.00 0.00 68 1007.0
20260505074527 38 264 6.1 10.4 0.00 0.00 0.00 68 1006.9
20260505073035 38 262 7.0 10.4 0.00 0.00 0.00 67 1006.8
20260505071519 39 251 6.1 8.7 0.00 0.00 0.00 65 1006.8
20260505070017 39 255 6.1 9.6 0.00 0.00 0.00 65 1006.8
20260505064517 39 256 5.2 8.7 0.00 0.00 0.00 63 1006.8
20260505063015 40 271 5.2 7.8 0.00 0.00 0.00 63 1006.7
20260505061513 40 254 6.1 8.7 0.00 0.00 0.00 62 1006.7
20260505060023 40 264 6.1 8.7 0.00 0.00 0.00 62 1006.5
20260505054509 40 240 5.2 7.8 0.00 0.00 0.00 63 1006.4
20260505053005 40 259 4.3 7.0 0.00 0.00 0.00 63 1006.4
20260505051503 39 254 4.3 7.0 0.00 0.00 0.00 64 1006.3
20260505041553 41 266 5.2 7.0 0.00 0.00 0.00 60 1006.2
20260505040050 42 285 4.3 8.7 0.00 0.00 0.00 58 1006.3
20260505034548 42 274 5.2 10.4 0.00 0.00 0.00 57 1006.3
20260505033105 43 281 6.1 10.4 0.00 0.00 0.00 56 1006.0
20260505031542 44 295 5.2 8.7 0.00 0.00 0.00 54 1006.1
20260505030042 44 280 6.1 9.6 0.00 0.00 0.00 53 1005.8
20260505024541 44 287 5.2 7.8 0.00 0.00 0.00 53 1005.8
20260505023046 44 276 4.3 7.8 0.00 0.00 0.00 51 1005.5
20260505021534 44 295 5.2 8.7 0.00 0.00 0.00 50 1005.2
20260505020031 45 278 6.1 9.6 0.00 0.00 0.00 49 1004.9
20260505014531 46 289 6.1 11.3 0.00 0.00 0.00 47 1004.8
20260505013024 47 302 7.8 13.0 0.00 0.00 0.00 45 1004.6
20260505011522 48 319 11.3 16.5 0.00 0.00 0.00 44 1004.5
20260505010019 49 290 10.4 16.5 0.00 0.00 0.00 43 1004.4
20260505004535 50 329 12.2 20.0 0.00 0.00 0.00 42 1004.3